2023/01/26 00:00:00,48.9,-6.3
2023/01/26 00:10:00,48.7,-6.4
2023/01/26 00:20:00,48.7,-6.7
2023/01/26 00:30:00,48.5,-6.6
2023/01/26 00:40:00,48.5,-7.2
2023/01/26 00:50:00,48.4,-7.4
2023/01/26 01:00:00,48.4,-7.6
2023/01/26 01:10:00,48.3,-7.0
2023/01/26 01:20:00,48.2,-7.0
2023/01/26 01:30:00,48.2,-6.9
2023/01/26 01:40:00,48.2,-7.0
2023/01/26 01:50:00,48.0,-7.3
2023/01/26 02:00:00,48.0,-7.1
2023/01/26 02:10:00,47.9,-6.7
2023/01/26 02:20:00,47.9,-6.9
2023/01/26 02:30:00,47.9,-7.3
2023/01/26 02:40:00,47.7,-8.2
2023/01/26 02:50:00,47.7,-8.5
2023/01/26 03:00:00,47.6,-8.4
2023/01/26 03:10:00,47.5,-7.7
2023/01/26 03:20:00,47.5,-7.8
2023/01/26 03:30:00,47.5,-7.6
2023/01/26 03:40:00,47.5,-7.5
2023/01/26 03:50:00,47.4,-7.8
2023/01/26 04:00:00,47.2,-7.9
2023/01/26 04:10:00,47.1,-7.8
2023/01/26 04:20:00,47.0,-6.9
2023/01/26 04:30:00,47.1,-6.2
2023/01/26 04:40:00,47.0,-5.8
2023/01/26 04:50:00,47.1,-5.6
2023/01/26 05:00:00,47.0,-5.7
2023/01/26 05:10:00,46.9,-5.9
2023/01/26 05:20:00,46.7,-5.8
2023/01/26 05:30:00,46.7,-5.8
2023/01/26 05:40:00,46.6,-4.8
2023/01/26 05:50:00,46.6,-4.6
2023/01/26 06:00:00,46.5,-4.6
2023/01/26 06:10:00,46.4,-4.4
2023/01/26 06:20:00,46.3,-4.6
2023/01/26 06:30:00,46.2,-4.3
2023/01/26 06:40:00,46.2,-4.3
2023/01/26 06:50:00,46.1,-4.3
2023/01/26 07:00:00,46.1,-4.9
2023/01/26 07:10:00,45.9,-4.9
2023/01/26 07:20:00,45.9,-4.7
2023/01/26 07:30:00,45.8,-4.6
2023/01/26 07:40:00,45.8,-4.7
2023/01/26 07:50:00,45.7,-5.2
2023/01/26 08:00:00,45.7,-5.1
2023/01/26 08:10:00,45.6,-5.5
2023/01/26 08:20:00,45.5,-4.8
2023/01/26 08:30:00,45.5,-4.3
2023/01/26 08:40:00,45.5,-3.6
2023/01/26 08:50:00,45.5,-3.2
2023/01/26 09:00:00,45.4,-2.9
2023/01/26 09:10:00,45.2,-2.8
2023/01/26 09:20:00,45.1,-2.9
2023/01/26 09:30:00,45.0,-2.7
2023/01/26 09:40:00,45.0,-2.7
2023/01/26 09:50:00,44.9,-2.8
2023/01/26 10:00:00,45.0,-2.4
2023/01/26 10:10:00,45.0,-1.5
2023/01/26 10:20:00,44.9,-1.4
2023/01/26 10:30:00,44.9,-0.7
2023/01/26 10:40:00,44.8,-0.3
2023/01/26 10:50:00,44.7,-0.2
2023/01/26 11:00:00,44.8, 0.9
2023/01/26 11:10:00,44.8, 2.0
2023/01/26 11:20:00,44.8, 2.2
2023/01/26 11:30:00,44.9, 1.9
2023/01/26 11:40:00,44.8, 2.4
2023/01/26 11:50:00,45.0, 4.6
2023/01/26 12:00:00,44.8, 4.2
2023/01/26 12:10:00,45.0, 4.7
2023/01/26 12:20:00,44.7, 5.3
2023/01/26 12:30:00,44.1, 5.7
2023/01/26 12:40:00,43.4, 6.4
2023/01/26 12:50:00,42.1, 6.3
2023/01/26 13:00:00,41.4, 5.0
2023/01/26 13:10:00,40.5, 4.1
2023/01/26 13:20:00,40.4, 3.4
2023/01/26 13:30:00,40.5, 2.9
2023/01/26 13:40:00,41.0, 4.3
2023/01/26 13:50:00,41.7, 4.6
2023/01/26 14:00:00,41.4, 4.4
2023/01/26 14:10:00,40.7, 3.3
2023/01/26 14:20:00,40.7, 2.5
2023/01/26 14:30:00,40.7, 2.4
2023/01/26 14:40:00,40.8, 2.5
2023/01/26 14:50:00,41.0, 2.5
2023/01/26 15:00:00,40.9, 1.8
2023/01/26 15:10:00,40.9, 1.5
2023/01/26 15:20:00,40.9, 1.4
2023/01/26 15:30:00,40.9, 1.0
2023/01/26 15:40:00,40.8, 0.7
2023/01/26 15:50:00,40.7, 0.2
2023/01/26 16:00:00,40.6,-0.1
2023/01/26 16:10:00,40.9, 0.0
2023/01/26 16:20:00,40.9,-0.1
2023/01/26 16:30:00,40.7, 0.0
2023/01/26 16:40:00,40.6, 0.0
2023/01/26 16:50:00,40.5,-0.1
2023/01/26 17:00:00,40.5,-0.5
2023/01/26 17:10:00,40.4,-0.6
2023/01/26 17:20:00,40.4,-0.8
2023/01/26 17:30:00,40.7,-0.8
2023/01/26 17:40:00,41.3,-0.7
2023/01/26 17:50:00,41.9,-0.9
2023/01/26 18:00:00,42.0,-1.1
2023/01/26 18:10:00,42.3,-1.4
2023/01/26 18:20:00,42.4,-1.3
2023/01/26 18:30:00,42.5,-1.2
2023/01/26 18:40:00,42.4,-1.2
2023/01/26 18:50:00,42.3,-1.1
2023/01/26 19:00:00,42.3,-1.2
2023/01/26 19:10:00,42.4,-1.3
2023/01/26 19:20:00,42.4,-1.2
2023/01/26 19:30:00,42.4,-1.3
2023/01/26 19:40:00,42.3,-1.4
2023/01/26 19:50:00,42.2,-1.3
2023/01/26 20:00:00,42.2,-1.5
2023/01/26 20:10:00,42.1,-1.4
2023/01/26 20:20:00,42.1,-1.3
2023/01/26 20:30:00,42.1,-1.6
2023/01/26 20:40:00,42.3,-1.7
2023/01/26 20:50:00,42.6,-1.6
2023/01/26 21:00:00,42.5,-1.7
2023/01/26 21:10:00,42.2,-1.6
2023/01/26 21:20:00,42.1,-1.6
2023/01/26 21:30:00,42.0,-1.2
2023/01/26 21:40:00,41.8,-1.7
2023/01/26 21:50:00,41.7,-1.7
2023/01/26 22:00:00,41.7,-1.6
2023/01/26 22:10:00,41.8,-1.5
2023/01/26 22:20:00,41.7,-1.5
2023/01/26 22:30:00,41.7,-1.6
2023/01/26 22:40:00,41.6,-1.3
2023/01/26 22:50:00,41.4,-1.7
2023/01/26 23:00:00,41.4,-1.5
2023/01/26 23:10:00,41.3,-1.4
2023/01/26 23:20:00,41.3,-1.6
2023/01/26 23:30:00,41.3,-1.6
2023/01/26 23:40:00,41.3,-1.7
2023/01/26 23:50:00,41.2,-1.8
